Simultaneous Nadir Overpasses (SNOs) Predictions

Prediction of SNOs over PacNW region [( 10.00, 139.50) to ( 22.70, 165.60)] between AQUA and NPP Satellites:

Table of predicted SNOs over PacNW region for the next 30.0 days since TLE Epoch: 6/29/2018
Index Date (AQUA) Time (AQUA) AQUA Lat,Lon Date (NPP) Time (NPP) NPP Lat,Lon Distance(km) Time Diff (sec)
1 07/06/2018 15:59:40 22.63, 147.49 07/06/2018 16:01:36 23.24, 144.66 297.79 116
2 07/14/2018 15:10:12 22.59, 159.85 07/14/2018 15:10:50 23.16, 157.35 263.87 38
3 07/22/2018 15:59:35 22.62, 147.50 07/22/2018 16:01:31 23.24, 144.70 294.99 116




NCC Satellite Simultaneous Nadir Overpasses (SNOs) Prediction Service
